When you browse on this site, cookies collect data to enhance your experience and personalize the content and advertising you see.
Visit our Privacy Policy to learn more. By continuing to use the site, you agree to this use of cookies and data.
  • Em Portugal
  • Lista de países
  • Para 7 dias
  • Temperatura da água
  • Mapas de satélite
  • Mapa do tempo
  • Widgets de tempo
  • user-avatar
    Iniciar Sessão

    Previsão horária em Galway

    Hoje, 16 Julho, Terça-feira

    Tempo Temperatura Precipitação Vento Pressão Humidade
    00:00 +16°C° 0 mm 2 m/s 763 mmHg 92%
    01:00 +15°C° 0 mm 2 m/s 763 mmHg 93%
    02:00 +15°C° 0 mm 2 m/s 763 mmHg 93%
    03:00 +15°C° 0 mm 2 m/s 763 mmHg 93%
    04:00 +15°C° 0 mm 2 m/s 763 mmHg 94%
    05:00 +16°C° 0 mm 2 m/s 763 mmHg 96%
    06:00 +17°C° 0.1 mm 2 m/s 763 mmHg 90%
    07:00 +18°C° 0.1 mm 3 m/s 763 mmHg 85%
    08:00 +19°C° 0.1 mm 4 m/s 763 mmHg 79%
    09:00 +19°C° 0 mm 4 m/s 763 mmHg 74%
    10:00 +20°C° 0 mm 4 m/s 762 mmHg 70%
    11:00 +20°C° 0 mm 5 m/s 762 mmHg 65%
    12:00 +21°C° 0 mm 5 m/s 762 mmHg 64%
    13:00 +21°C° 0 mm 5 m/s 762 mmHg 64%
    14:00 +21°C° 0 mm 6 m/s 762 mmHg 63%
    15:00 +20°C° 0 mm 5 m/s 761 mmHg 67%
    16:00 +19°C° 0 mm 5 m/s 761 mmHg 70%
    17:00 +19°C° 0 mm 5 m/s 761 mmHg 73%
    18:00 +17°C° 0 mm 5 m/s 761 mmHg 77%
    19:00 +16°C° 0 mm 5 m/s 761 mmHg 81%
    20:00 +15°C° 0 mm 4 m/s 761 mmHg 85%
    21:00 +14°C° 0 mm 4 m/s 761 mmHg 87%
    22:00 +14°C° 0 mm 4 m/s 760 mmHg 89%
    23:00 +14°C° 0 mm 5 m/s 760 mmHg 91%

    Amanhã, 17 Julho, Quarta-feira

    Tempo Temperatura Precipitação Vento Pressão Humidade
    00:00 +14°C° 0 mm 5 m/s 760 mmHg 91%
    01:00 +14°C° 0 mm 5 m/s 759 mmHg 90%
    02:00 +14°C° 0 mm 5 m/s 758 mmHg 90%
    03:00 +14°C° 0.4 mm 6 m/s 758 mmHg 91%
    04:00 +14°C° 0.4 mm 6 m/s 757 mmHg 92%
    05:00 +14°C° 0.4 mm 6 m/s 757 mmHg 93%
    06:00 +14°C° 1 mm 6 m/s 757 mmHg 93%
    07:00 +15°C° 1 mm 6 m/s 757 mmHg 93%
    08:00 +15°C° 1 mm 6 m/s 756 mmHg 92%
    09:00 +15°C° 0.8 mm 7 m/s 756 mmHg 93%
    10:00 +16°C° 0.8 mm 7 m/s 756 mmHg 94%
    11:00 +16°C° 0.8 mm 7 m/s 756 mmHg 94%
    12:00 +16°C° 0.3 mm 6 m/s 756 mmHg 94%
    13:00 +17°C° 0.3 mm 5 m/s 756 mmHg 93%
    14:00 +17°C° 0.3 mm 5 m/s 756 mmHg 92%
    15:00 +17°C° 0.2 mm 5 m/s 756 mmHg 90%
    16:00 +17°C° 0.2 mm 5 m/s 756 mmHg 89%
    17:00 +16°C° 0.2 mm 5 m/s 756 mmHg 87%
    18:00 +15°C° 0 mm 4 m/s 756 mmHg 88%
    19:00 +14°C° 0 mm 4 m/s 756 mmHg 89%
    20:00 +12°C° 0 mm 3 m/s 757 mmHg 90%
    21:00 +13°C° 0 mm 3 m/s 757 mmHg 88%
    22:00 +13°C° 0 mm 3 m/s 756 mmHg 86%
    23:00 +13°C° 0 mm 3 m/s 756 mmHg 84%

    Depois de amanhã, 18 Julho, Quinta-feira

    Tempo Temperatura Precipitação Vento Pressão Humidade
    00:00 +13°C° 0 mm 3 m/s 756 mmHg 84%
    01:00 +13°C° 0 mm 4 m/s 756 mmHg 84%
    02:00 +13°C° 0 mm 4 m/s 756 mmHg 85%
    03:00 +13°C° 0.1 mm 4 m/s 756 mmHg 86%
    04:00 +13°C° 0.1 mm 4 m/s 756 mmHg 87%
    05:00 +13°C° 0.1 mm 4 m/s 756 mmHg 88%
    06:00 +14°C° 0.1 mm 5 m/s 756 mmHg 84%
    07:00 +15°C° 0.1 mm 5 m/s 756 mmHg 80%
    08:00 +16°C° 0.1 mm 6 m/s 756 mmHg 76%
    09:00 +16°C° 0.2 mm 6 m/s 756 mmHg 75%
    10:00 +16°C° 0.2 mm 6 m/s 756 mmHg 75%
    11:00 +16°C° 0.2 mm 6 m/s 756 mmHg 74%
    12:00 +17°C° 0.1 mm 6 m/s 756 mmHg 73%
    13:00 +17°C° 0.1 mm 7 m/s 756 mmHg 72%
    14:00 +17°C° 0.1 mm 7 m/s 756 mmHg 70%
    15:00 +17°C° 0.1 mm 7 m/s 756 mmHg 73%
    16:00 +16°C° 0.1 mm 6 m/s 756 mmHg 75%
    17:00 +16°C° 0.1 mm 6 m/s 756 mmHg 78%
    18:00 +15°C° 0.1 mm 5 m/s 757 mmHg 82%
    19:00 +14°C° 0.1 mm 4 m/s 757 mmHg 87%
    20:00 +13°C° 0.1 mm 3 m/s 757 mmHg 91%
    21:00 +12°C° 0.1 mm 3 m/s 757 mmHg 92%
    22:00 +12°C° 0.1 mm 3 m/s 757 mmHg 93%
    23:00 +12°C° 0.1 mm 3 m/s 757 mmHg 94%

    19 Julho, Sexta-feira

    Tempo Temperatura Precipitação Vento Pressão Humidade
    00:00 +12°C° 0.1 mm 3 m/s 757 mmHg 94%
    01:00 +12°C° 0.1 mm 3 m/s 756 mmHg 95%
    02:00 +12°C° 0.1 mm 3 m/s 756 mmHg 95%
    03:00 +12°C° 0.1 mm 3 m/s 756 mmHg 94%
    04:00 +12°C° 0.1 mm 3 m/s 756 mmHg 94%
    05:00 +12°C° 0.1 mm 3 m/s 755 mmHg 93%
    06:00 +13°C° 0 mm 3 m/s 755 mmHg 89%
    07:00 +14°C° 0 mm 3 m/s 755 mmHg 85%
    08:00 +16°C° 0 mm 3 m/s 755 mmHg 81%
    09:00 +16°C° 0.1 mm 2 m/s 754 mmHg 78%
    10:00 +17°C° 0.1 mm 2 m/s 754 mmHg 76%
    11:00 +17°C° 0.1 mm 2 m/s 753 mmHg 73%
    12:00 +16°C° 1.3 mm 2 m/s 753 mmHg 79%
    13:00 +16°C° 1.3 mm 2 m/s 753 mmHg 85%
    14:00 +15°C° 1.3 mm 2 m/s 752 mmHg 90%
    15:00 +14°C° 2 mm 2 m/s 752 mmHg 92%
    16:00 +14°C° 2 mm 2 m/s 752 mmHg 93%
    17:00 +14°C° 2 mm 2 m/s 752 mmHg 95%
    18:00 +14°C° 0.9 mm 2 m/s 752 mmHg 95%
    19:00 +14°C° 0.9 mm 2 m/s 752 mmHg 96%
    20:00 +14°C° 0.9 mm 2 m/s 752 mmHg 96%
    21:00 +13°C° 0.1 mm 2 m/s 752 mmHg 96%
    22:00 +13°C° 0.1 mm 2 m/s 752 mmHg 96%
    23:00 +13°C° 0.1 mm 2 m/s 752 mmHg 96%

    20 Julho, Sábado

    Tempo Temperatura Precipitação Vento Pressão Humidade
    00:00 +13°C° 0 mm 2 m/s 753 mmHg 95%
    01:00 +12°C° 0 mm 3 m/s 753 mmHg 94%
    02:00 +11°C° 0 mm 3 m/s 753 mmHg 93%
    03:00 +12°C° 0 mm 3 m/s 753 mmHg 92%
    04:00 +12°C° 0 mm 3 m/s 754 mmHg 92%
    05:00 +13°C° 0 mm 2 m/s 754 mmHg 91%
    06:00 +13°C° 0 mm 3 m/s 754 mmHg 85%
    07:00 +16°C° 0 mm 3 m/s 755 mmHg 79%
    08:00 +17°C° 0 mm 3 m/s 755 mmHg 74%
    09:00 +18°C° 0 mm 4 m/s 755 mmHg 72%
    10:00 +18°C° 0 mm 4 m/s 756 mmHg 69%
    11:00 +19°C° 0 mm 5 m/s 756 mmHg 67%
    12:00 +19°C° 0 mm 5 m/s 756 mmHg 67%
    13:00 +19°C° 0 mm 5 m/s 757 mmHg 66%
    14:00 +19°C° 0 mm 5 m/s 757 mmHg 66%
    15:00 +19°C° 0 mm 5 m/s 757 mmHg 68%
    16:00 +17°C° 0 mm 5 m/s 757 mmHg 70%
    17:00 +17°C° 0 mm 5 m/s 758 mmHg 73%
    18:00 +15°C° 0 mm 4 m/s 758 mmHg 78%
    19:00 +14°C° 0 mm 3 m/s 759 mmHg 84%
    20:00 +14°C° 0 mm 2 m/s 759 mmHg 89%
    21:00 +14°C° 0 mm 2 m/s 759 mmHg 89%
    22:00 +13°C° 0 mm 3 m/s 759 mmHg 89%
    23:00 +13°C° 0 mm 3 m/s 759 mmHg 89%

    21 Julho, Domingo

    Tempo Temperatura Precipitação Vento Pressão Humidade
    00:00 +13°C° 0 mm 4 m/s 759 mmHg 88%
    01:00 +13°C° 0 mm 4 m/s 759 mmHg 88%
    02:00 +14°C° 0 mm 5 m/s 759 mmHg 87%
    03:00 +14°C° 0 mm 5 m/s 759 mmHg 88%
    04:00 +14°C° 0 mm 4 m/s 759 mmHg 89%
    05:00 +14°C° 0 mm 4 m/s 759 mmHg 90%
    06:00 +16°C° 0 mm 5 m/s 760 mmHg 86%
    07:00 +17°C° 0 mm 5 m/s 760 mmHg 83%
    08:00 +19°C° 0 mm 5 m/s 760 mmHg 80%
    09:00 +20°C° 0 mm 6 m/s 760 mmHg 76%
    10:00 +21°C° 0 mm 6 m/s 761 mmHg 72%
    11:00 +22°C° 0 mm 6 m/s 761 mmHg 68%
    12:00 +22°C° 0.1 mm 6 m/s 761 mmHg 69%
    13:00 +23°C° 0.1 mm 7 m/s 761 mmHg 69%
    14:00 +23°C° 0.1 mm 7 m/s 761 mmHg 69%
    15:00 +22°C° 0.1 mm 6 m/s 761 mmHg 73%
    16:00 +22°C° 0.1 mm 5 m/s 761 mmHg 76%
    17:00 +22°C° 0.1 mm 5 m/s 761 mmHg 79%
    18:00 +21°C° 0 mm 5 m/s 761 mmHg 82%
    19:00 +20°C° 0 mm 5 m/s 761 mmHg 84%
    20:00 +19°C° 0 mm 6 m/s 761 mmHg 87%
    21:00 +17°C° 0 mm 6 m/s 761 mmHg 88%
    22:00 +17°C° 0 mm 6 m/s 761 mmHg 89%
    23:00 +16°C° 0 mm 6 m/s 760 mmHg 90%
    Mostrar mais